Regional Weather Roundup
Issued by NWS

Home | Current Version | Previous Version | Text Only | Print | Product List | Glossary Off
Versions: 1 2 3 4 5 6 7 8 9 10 11 12 13 14 15 16 17 18 19 20 21 22 23 24 25 26 27 28 29 30 31 32 33 34 35 36 37 38 39 40 41 42 43 44 45 46 47 48 49 50

000
ASUS45 KBOU 291007
RWRCO

WEATHER ROUNDUP FOR COLORADO
NATIONAL WEATHER SERVICE DENVER/BOULDER CO
400 AM MDT FRI MAY 29 2015

NOTE: "FAIR" INDICATES FEW OR NO CLOUDS BELOW 12000 FEET WITH NO
SIGNIFICANT WEATHER AND/OR OBSTRUCTIONS TO VISIBILITY.

COZ001>005-013-030-031-291100-
...NORTHWEST COLORADO...

CITY           SKY/WX    TMP DP  RH WIND       PRES   REMARKS
CRAIG          MOCLDY    39  37  92 CALM      30.24F
HAYDEN         MOCLDY    39  36  87 CALM      30.25R
MEEKER         CLEAR     38  35  89 N3        30.25S
MOUNT WERNER   NOT AVBL
STEAMBOAT SPGS PTCLDY    38  37  96 CALM      30.25S
WALDEN         CLOUDY    37  34  87 S3        30.27R
$$

COZ006>008-011-291100-
...WEST CENTRAL VALLEYS...

CITY           SKY/WX    TMP DP  RH WIND       PRES   REMARKS
GRAND JUNCTION CLEAR     44  44 100 CALM      30.17R
MONTROSE       CLEAR     45  40  82 SE9       30.21F
EAGLE          CLEAR     50  46  87 CALM      30.28S
RIFLE          CLEAR     44  38  79 CALM      30.23R
DELTA          CLEAR     47  43  87 CALM      30.19F
NUCLA          CLEAR     45  39  81 E7        30.22S
$$

COZ017>023-064>068-291100-
...SOUTHWEST COLORADO...

CITY           SKY/WX    TMP DP  RH WIND       PRES   REMARKS
DURANGO        CLEAR     40  36  86 N3        30.18R
CORTEZ         CLEAR     42  38  85 NE3       30.16S
PAGOSA SPRINGS CLEAR     39  32  76 CALM      30.23R
TELLURIDE      CLEAR     38  36  92 SE3       30.31F
WOLF CREEK PAS NOT AVBL
$$

COZ009-010-012-014-032>034-037-058>063-291100-
...CENTRAL COLORADO...

CITY           SKY/WX    TMP DP  RH WIND       PRES   REMARKS
ASPEN          CLEAR     35  32  88 SW6       30.27F WCI  30
BUENA VISTA    CLEAR     36  31  83 CALM      30.27S
COPPER MTN     CLOUDY    32  28  86 SW7G16    30.38F WCI  26
BERTHOUD PASS  MOCLDY    23  16  74 W16G22    30.39F HAZE    WCI  10
COTTONWOOD PAS CLEAR     39  28  65 W8        30.33S
GUNNISON       PTCLDY    36  30  80 NW3       30.31S
KREMMLING      MOCLDY    37  34  87 CALM      30.27F
LEADVILLE      CLOUDY    31  29  92 CALM      30.32S
MONARCH PASS   CLEAR     30  27  86 MISG      30.49F
SALIDA         CLEAR     42  34  71 NW3       30.33S
SUNLIGHT       CLEAR     34  32  93 CALM      30.39F
WILKERSON PASS PTCLDY    32  23  69 W8        30.39S WCI  25
$$

COZ069>075-291100-
...SAN LUIS VALLEY/SANGRE DE CRISTO MOUNTAINS...

CITY           SKY/WX    TMP DP  RH WIND       PRES   REMARKS
ALAMOSA        CLEAR     38  32  79 W3        30.24S
LA VETA PASS   CLEAR    N/A N/A N/A MISG      30.33F
SAGUACHE       CLEAR     41  34  75 NW12      30.26S
$$

COZ035-036-038>040-291100-
...NORTHERN COLORADO FRONT RANGE...

CITY           SKY/WX    TMP DP  RH WIND       PRES   REMARKS
DENVER INTL AP PTCLDY    51  45  79 NE3       30.15S
DMNS CITY PARK   N/A     48  44  83 N1        30.15R
AURORA         PTCLDY    47  43  84 CALM      30.16S
FRONT RANGE AP NOT AVBL
ERIE MUNI ARPT PTCLDY    47  45  91 CALM      30.16R
BOULDER MUN AP LGT RAIN  52  48  87 CALM      30.16F
CENTENNIAL     PTCLDY    45  43  93 SE7       30.16R
BROOMFIELD     PTCLDY    52  45  76 N6        30.18R
FORT COLLINS   MOCLDY    52  46  82 CALM      30.15S
LONGMONT       LGT RAIN  54  49  83 SW6       30.17S
$$

COZ041-046-047-076>085-087-088-291100-
...PIKES PEAK/PALMER DIVIDE AND SOUTHERN FOOTHILLS...

CITY           SKY/WX    TMP DP  RH WIND       PRES   REMARKS
COLO. SPRINGS  PTCLDY    49  43  80 W5        30.18S
A. F. ACADEMY  PTCLDY    43  43  97 N8        30.18S
ELLICOTT       PTCLDY   N/A N/A N/A CALM      30.16S
FALCON         PTCLDY    45  41  86 NW55G104  30.21R
FORT CARSON    MOCLDY    47  44  88 NW7       30.15F
LIMON          PTCLDY    49  45  86 VRB6      30.13S
MONUMENT HILL  PTCLDY    41  36  81 CALM      30.20
TRINIDAD       CLOUDY    52  47  83 W6        30.16S
$$

COZ042>045-048>051-090-091-291100-
...NORTHEAST COLORADO...

CITY           SKY/WX    TMP DP  RH WIND       PRES   REMARKS
GREELEY ARPT   MOCLDY    54  48  82 CALM      30.13F
AKRON          PTCLDY    48  47  96 W9        30.09S
BURLINGTON     PTCLDY    55  49  80 NW14      30.05F
WRAY           MOCLDY    53  53 100 W3        30.04S
STERLING       MOCLDY    52  46  82 NW7       30.07S
HOLYOKE        MOCLDY    59  52  77 W10       30.03S
FORT MORGAN    CLOUDY    52  48  86 NW12      30.11S
$$

COZ086-089-092>099-291100-
...SOUTHEAST COLORADO...

CITY           SKY/WX    TMP DP  RH WIND       PRES   REMARKS
PUEBLO         PTCLDY    51  48  89 NW9       30.12S
LA JUNTA       MOCLDY    55  50  83 W9        30.08R
LAMAR          CLOUDY    53  52  96 SW6       30.03S
SPRINGFIELD      N/A     49  47  93 NW7       30.07S
$$



USA.gov is the U.S. government's official web portal to all federal, state and local government web resources and services.